Tracking 19249 objects as of 15-Oct-2018
HD Live streaming from Space Station
objects crossing your sky now

NOAA 8

Track NOAA 8 now!
10-day predictions
NOAA 8 is classified as:


NORAD ID: 13923
Int'l Code: 1983-022A
Perigee: 792.5 km
Apogee: 814.2 km
Inclination: 98.6 °
Period: 100.8 minutes
Semi major axis: 7174 km
RCS: 5.054 m2 (large)
Launch date: March 28, 1983
Source: United States (US)
Launch site: AIR FORCE WESTERN TEST RANGE (AFWTR)
aabbcc
Your satellite tracking list
Your tracking list is empty




NASA's NSSDC Master Catalog

Two Line Element Set (TLE):
1 13923U 83022A   18287.59595434 +.00000007 +00000-0 +19995-4 0  9997
2 13923 098.5576 272.2478 0015156 176.4602 183.6690 14.28654325850800
Source of the keplerian elements: AFSPC